• în România
  • Lista ţărilor
  • Pe 7 zile
  • Temperatura apei
  • Hartă satelitară
  • Meteo pe hartă
  • Widget-uri
  • user-avatar
    Intrare

    Meteo pe oră la Nizhnyaya Aleksandrovka

    Astăzi, 23 Septembrie, Duminică

    Timp Temperatura Precipitaţii Vânt Presiune Umiditate
    00:00 +18°C° 0 mm 3 m/s 734 mmHg 70%
    01:00 +17°C° 0 mm 3 m/s 734 mmHg 73%
    02:00 +17°C° 0 mm 3 m/s 734 mmHg 76%
    03:00 +16°C° 0 mm 2 m/s 734 mmHg 78%
    04:00 +16°C° 0 mm 2 m/s 734 mmHg 80%
    05:00 +15°C° 0 mm 2 m/s 734 mmHg 82%
    06:00 +15°C° 0 mm 2 m/s 734 mmHg 84%
    07:00 +17°C° 0 mm 2 m/s 734 mmHg 76%
    08:00 +19°C° 0 mm 2 m/s 734 mmHg 68%
    09:00 +21°C° 0 mm 2 m/s 734 mmHg 60%
    10:00 +23°C° 0 mm 2 m/s 734 mmHg 54%
    11:00 +25°C° 0 mm 2 m/s 734 mmHg 48%
    12:00 +27°C° 0 mm 2 m/s 734 mmHg 42%
    13:00 +27°C° 0 mm 2 m/s 734 mmHg 40%
    14:00 +28°C° 0 mm 2 m/s 734 mmHg 38%
    15:00 +29°C° 0 mm 2 m/s 734 mmHg 36%
    16:00 +27°C° 0 mm 2 m/s 734 mmHg 40%
    17:00 +26°C° 0 mm 2 m/s 733 mmHg 44%
    18:00 +24°C° 0 mm 1 m/s 733 mmHg 48%
    19:00 +24°C° 0.1 mm 2 m/s 734 mmHg 53%
    20:00 +22°C° 0.1 mm 3 m/s 734 mmHg 59%
    21:00 +21°C° 0.1 mm 3 m/s 734 mmHg 64%
    22:00 +21°C° 0.2 mm 3 m/s 734 mmHg 69%
    23:00 +20°C° 0.2 mm 4 m/s 734 mmHg 74%

    Mâine, 24 Septembrie, Luni

    Timp Temperatura Precipitaţii Vânt Presiune Umiditate
    00:00 +20°C° 0.2 mm 4 m/s 734 mmHg 80%
    01:00 +19°C° 0 mm 4 m/s 735 mmHg 82%
    02:00 +19°C° 0 mm 4 m/s 735 mmHg 83%
    03:00 +19°C° 0 mm 4 m/s 735 mmHg 85%
    04:00 +19°C° 0 mm 3 m/s 735 mmHg 85%
    05:00 +19°C° 0 mm 3 m/s 735 mmHg 84%
    06:00 +19°C° 0 mm 2 m/s 735 mmHg 83%
    07:00 +19°C° 0 mm 2 m/s 736 mmHg 79%
    08:00 +20°C° 0 mm 2 m/s 736 mmHg 74%
    09:00 +21°C° 0 mm 2 m/s 736 mmHg 70%
    10:00 +23°C° 0 mm 2 m/s 736 mmHg 66%
    11:00 +23°C° 0 mm 2 m/s 736 mmHg 62%
    12:00 +24°C° 0 mm 2 m/s 735 mmHg 59%
    13:00 +25°C° 0 mm 2 m/s 735 mmHg 56%
    14:00 +26°C° 0 mm 2 m/s 735 mmHg 53%
    15:00 +26°C° 0 mm 2 m/s 734 mmHg 50%
    16:00 +25°C° 0 mm 2 m/s 734 mmHg 53%
    17:00 +24°C° 0 mm 2 m/s 734 mmHg 56%
    18:00 +24°C° 0 mm 2 m/s 733 mmHg 60%
    19:00 +23°C° 0 mm 2 m/s 733 mmHg 62%
    20:00 +21°C° 0 mm 3 m/s 733 mmHg 64%
    21:00 +20°C° 0 mm 3 m/s 733 mmHg 67%
    22:00 +20°C° 0 mm 3 m/s 733 mmHg 67%
    23:00 +19°C° 0 mm 3 m/s 732 mmHg 68%

    Poimâine, 25 Septembrie, Marţi

    Timp Temperatura Precipitaţii Vânt Presiune Umiditate
    00:00 +19°C° 0 mm 3 m/s 732 mmHg 68%
    01:00 +19°C° 0 mm 2 m/s 732 mmHg 69%
    02:00 +18°C° 0 mm 2 m/s 731 mmHg 71%
    03:00 +18°C° 0 mm 2 m/s 731 mmHg 72%
    04:00 +18°C° 0 mm 2 m/s 731 mmHg 72%
    05:00 +18°C° 0 mm 1 m/s 731 mmHg 73%
    06:00 +18°C° 0 mm 1 m/s 731 mmHg 73%
    07:00 +20°C° 0 mm 1 m/s 731 mmHg 67%
    08:00 +22°C° 0 mm 1 m/s 731 mmHg 60%
    09:00 +25°C° 0 mm 1 m/s 731 mmHg 53%
    10:00 +26°C° 0 mm 1 m/s 731 mmHg 48%
    11:00 +28°C° 0 mm 2 m/s 731 mmHg 43%
    12:00 +29°C° 0 mm 2 m/s 731 mmHg 38%
    13:00 +30°C° 0 mm 3 m/s 731 mmHg 37%
    14:00 +30°C° 0 mm 3 m/s 731 mmHg 36%
    15:00 +30°C° 0 mm 3 m/s 731 mmHg 35%
    16:00 +28°C° 0 mm 4 m/s 731 mmHg 42%
    17:00 +26°C° 0 mm 4 m/s 732 mmHg 50%
    18:00 +23°C° 0 mm 5 m/s 732 mmHg 57%
    19:00 +22°C° 0.2 mm 5 m/s 732 mmHg 61%
    20:00 +20°C° 0.2 mm 5 m/s 733 mmHg 64%
    21:00 +19°C° 0.2 mm 6 m/s 734 mmHg 67%
    22:00 +17°C° 0.3 mm 5 m/s 734 mmHg 69%
    23:00 +16°C° 0.3 mm 5 m/s 734 mmHg 72%

    26 Septembrie, Miercuri

    Timp Temperatura Precipitaţii Vânt Presiune Umiditate
    00:00 +15°C° 0.3 mm 5 m/s 734 mmHg 74%
    01:00 +14°C° 0.2 mm 4 m/s 734 mmHg 72%
    02:00 +14°C° 0.2 mm 4 m/s 735 mmHg 70%
    03:00 +13°C° 0.2 mm 4 m/s 735 mmHg 68%
    04:00 +13°C° 0.1 mm 4 m/s 735 mmHg 68%
    05:00 +13°C° 0.1 mm 4 m/s 736 mmHg 68%
    06:00 +12°C° 0.1 mm 4 m/s 736 mmHg 69%
    07:00 +12°C° 0.2 mm 3 m/s 737 mmHg 70%
    08:00 +12°C° 0.2 mm 3 m/s 737 mmHg 72%
    09:00 +12°C° 0.2 mm 3 m/s 737 mmHg 74%
    10:00 +12°C° 0.2 mm 3 m/s 738 mmHg 73%
    11:00 +12°C° 0.2 mm 3 m/s 738 mmHg 72%
    12:00 +12°C° 0.2 mm 3 m/s 738 mmHg 71%
    13:00 +12°C° 0.1 mm 3 m/s 738 mmHg 69%
    14:00 +13°C° 0.1 mm 2 m/s 738 mmHg 67%
    15:00 +14°C° 0.1 mm 2 m/s 738 mmHg 65%
    16:00 +13°C° 0.2 mm 2 m/s 738 mmHg 67%
    17:00 +13°C° 0.2 mm 2 m/s 738 mmHg 70%
    18:00 +13°C° 0.2 mm 1 m/s 739 mmHg 72%
    19:00 +12°C° 0.2 mm 1 m/s 739 mmHg 74%
    20:00 +12°C° 0.2 mm 1 m/s 739 mmHg 76%
    21:00 +12°C° 0.2 mm 1 m/s 739 mmHg 78%
    22:00 +12°C° 0.1 mm 1 m/s 739 mmHg 78%
    23:00 +12°C° 0.1 mm 1 m/s 739 mmHg 78%

    27 Septembrie, Joi

    Timp Temperatura Precipitaţii Vânt Presiune Umiditate
    00:00 +11°C° 0.1 mm 1 m/s 739 mmHg 78%
    01:00 +11°C° 0.1 mm 1 m/s 739 mmHg 78%
    02:00 +11°C° 0.1 mm 1 m/s 739 mmHg 78%
    03:00 +10°C° 0.1 mm 2 m/s 739 mmHg 78%
    04:00 +10°C° 0.1 mm 2 m/s 739 mmHg 78%
    05:00 +10°C° 0.1 mm 2 m/s 739 mmHg 79%
    06:00 +10°C° 0.1 mm 2 m/s 739 mmHg 79%
    07:00 +10°C° 0.5 mm 2 m/s 739 mmHg 77%
    08:00 +10°C° 0.5 mm 3 m/s 739 mmHg 75%
    09:00 +10°C° 0.5 mm 3 m/s 739 mmHg 73%
    10:00 +12°C° 0 mm 4 m/s 739 mmHg 67%
    11:00 +13°C° 0 mm 4 m/s 739 mmHg 61%
    12:00 +14°C° 0 mm 5 m/s 739 mmHg 55%
    13:00 +15°C° 0 mm 4 m/s 738 mmHg 54%
    14:00 +15°C° 0 mm 4 m/s 738 mmHg 52%
    15:00 +17°C° 0 mm 4 m/s 738 mmHg 51%
    16:00 +15°C° 0 mm 4 m/s 738 mmHg 54%
    17:00 +14°C° 0 mm 3 m/s 737 mmHg 57%
    18:00 +13°C° 0 mm 3 m/s 737 mmHg 60%
    19:00 +13°C° 0 mm 3 m/s 737 mmHg 62%
    20:00 +13°C° 0 mm 2 m/s 737 mmHg 63%
    21:00 +13°C° 0 mm 2 m/s 737 mmHg 65%
    22:00 +12°C° 0 mm 2 m/s 737 mmHg 65%
    23:00 +12°C° 0 mm 2 m/s 737 mmHg 66%

    28 Septembrie, Vineri

    Timp Temperatura Precipitaţii Vânt Presiune Umiditate
    00:00 +12°C° 0 mm 2 m/s 737 mmHg 66%
    01:00 +12°C° 0.2 mm 1 m/s 737 mmHg 68%
    02:00 +12°C° 0.2 mm 1 m/s 737 mmHg 69%
    03:00 +11°C° 0.2 mm 1 m/s 737 mmHg 71%
    04:00 +12°C° 0.2 mm 1 m/s 737 mmHg 71%
    05:00 +11°C° 0.2 mm 0 m/s 737 mmHg 72%
    06:00 +11°C° 0.2 mm 0 m/s 738 mmHg 72%
    07:00 +11°C° 0 mm 0 m/s 738 mmHg 70%
    08:00 +12°C° 0 mm 0 m/s 738 mmHg 68%
    09:00 +14°C° 0 mm 1 m/s 738 mmHg 66%
    10:00 +15°C° 0 mm 1 m/s 738 mmHg 61%
    11:00 +17°C° 0 mm 2 m/s 738 mmHg 57%
    12:00 +18°C° 0 mm 2 m/s 738 mmHg 52%
    13:00 +19°C° 0 mm 2 m/s 738 mmHg 51%
    14:00 +19°C° 0 mm 2 m/s 738 mmHg 50%
    15:00 +20°C° 0 mm 3 m/s 737 mmHg 49%
    16:00 +19°C° 0 mm 2 m/s 737 mmHg 53%
    17:00 +18°C° 0 mm 2 m/s 737 mmHg 57%
    18:00 +16°C° 0 mm 2 m/s 737 mmHg 60%
    19:00 +16°C° 0 mm 2 m/s 737 mmHg 63%
    20:00 +15°C° 0 mm 2 m/s 737 mmHg 65%
    21:00 +14°C° 0 mm 2 m/s 737 mmHg 68%
    22:00 +14°C° 0 mm 2 m/s 737 mmHg 70%
    23:00 +13°C° 0 mm 1 m/s 737 mmHg 72%
    Arată mai mult